Location: Edinburgh
(55.9500°N, 3.1600°W)
Time: 01:34:36
(UTC+01:00)

N. Korean satellite - Pass Details

Date: 16 October 2017
Orbit: 459 x 517 km, 97.2° (Epoch: 22 October)

Event Time Altitude Azimuth Distance (km) Brightness Sun altitude
Rises 18:56:19 0° 164° (SSE) 2,529 10.1 -7.3°
Reaches altitude 10° 18:58:22 10° 165° (SSE) 1,646 9.2 -7.6°
Maximum altitude 19:01:54 89° 231° (SW) 479 6.5 -8.1°
Drops below altitude 10° 19:05:25 10° 346° (NNW) 1,635 9.4 -8.6°
Sets 19:07:28 0° 346° (NNW) 2,510 10.3 -8.9°
